Погода в Томмоте

Погода в Томмоте : погода сейчас, прогноз погоды и архив. Всё, что Вы хотите узнать о погоде в Томмоте!

Поиск расширенной информации на нашем сайте:

Другие новости

Новости СМИ2

Главная страница сайта

Новости сайта

02.10.2013

Напоминаем, что на нашем новом сайте вы можете получить высокодетализированные прогнозы погоды по пунктам России, СНГ и мира (включающие важные для авиации метеовеличины, такие как направление и скорость ветра, видимость, явления погоды, количество и форма облачности, нижняя и верхняя граница облачности), а также ознакомиться с разнообразными материалами по авиационной метеорологии и подборкой полезных ссылок на эту тему.

Сайт Метеоцентр.Азия посвящён разработке технологий оптимизации авиаметеорологического обслуживания, включая проектирование и перспективное создание нескольких автоматизированных авиаметеорологических систем:
- система выпуска высокодетальных прогностических карт явлений погоды для нижнего воздушного пространства по России и ближнему зарубежью;
- система верификации прогнозов TAF (выпускаемых синоптиками официальных АМСГ РФ и ближнего зарубежья) и AUTOTAF (выпускаемых сайтом Метеоцентр.Азия) - выявление ошибок, онлайн-сопоставление с фактической погодой METAR, автоматическое внесение коррективов в прогнозы при резком отклонении фактической погоды от прогноза, подсчёт оправдываемости прогнозов по элементам и в целом;
- система обработки, анализа и отображения авиаметеорологической информации для применения провайдерами метеорологической информации.

Рекомендуем: Смотрите подробности газонокосилки сабо ремонт тут.

Погода в Томмоте - сегодня

Время (UTC), дата Ветер
(°,м/с) 
Видим.   Явления Облачность Т
(°С)
Тd
(°С)
f(%) Тe
(°С)
Pmin
(гПа)
dP
(гПа)
Po
(мм)
O2
(г/м3)
Тmin Tmax R s Состояние
почвы
15 20.01.17 тихо ()   20000 м    3/0 верхняя 
[Ci fib]
-39.1 -40.6 86 -39  1040.4  0.9  749  354           
18 20.01.17 тихо ()   20000 м    6/0 верхняя 
[Ci fib]
-39.8 -41.6 83 -40  1042.6  1.9  750  356           
21 20.01.17 тихо ()   20000 м  слаб. снег  10/0 верхняя 
[Cs]
-40.7 -42.1 86 -41  1043.3  0.5  751  358           
00 21.01.17 тихо ()   20000 м  {снег}  10/0 верхняя 
[Cs]
-41.6 -43.2 84 -42  1044.6  751  359  -41.7    0.0  43  равномерный
сухой снег
100% 
03 21.01.17 тихо ()   20000 м    10/0 верхняя 
[Cs]
-36 -37.8 83 -36  1042.8  -0.6  751  351  -41.8         
06 21.01.17 200 (Ю) 20000 м    10/0 верхняя 
[Ci fib]
-32.6 -34.8 81 -33  1040.8  -1.5  750  345           
09 21.01.17 тихо ()   20000 м    10/0 верхняя 
[Ci fib]
-37 -38.5 86 -37  1040.8  -0.7  749  351           
12 21.01.17 тихо ()   20000 м    6/0 верхняя 
[Ci fib]
-40.7 -42.1 86 -41  1041.2  -0.3  749  357    -32.6       
15 21.01.17 тихо ()   20000 м    8/0 верхняя 
[Ci fib]
-42.2 -43.8 85 -42  1040.6  -0.7  749  359           
18 21.01.17 тихо ()   20000 м    8/0 верхняя 
[Ci fib]
-43.3 -45.1 82 -43  1040.1  -0.7  748  360           
21 21.01.17 тихо ()   20000 м  слаб. снег  10/0 верхняя 
[Cs]
-39.4 -41.1 84 -39  1038.7  -0.6  748  354           
00 22.01.17 тихо ()   20000 м  слаб. снег  10/0 верхняя 
[Cs]
-36.4 -38.2 84 -36  1037.9  -0.3  747  349  -43.4    0.0  43  равномерный
сухой снег
100% 
03 22.01.17 300 (СЗ) 20000 м  в посл. час снег  8/0 верхняя 
[Ci sp]
-33.8 -35.6 84 -35  1036.9  -0.6  747  345           
06 22.01.17 тихо ()   20000 м  {снег}  8/0 верхняя 
[Cc]
-30.2 -32.6 80 -30  1035  -1.1  746  340           
09 22.01.17 тихо ()   20000 м    10/5 2000 м средняя, верхняя 
[Ac As|Cs]
-30.5 -32.4 84 -31  1035.4  0.2  746  340           
12 22.01.17 170 (Ю) 10 км  слаб. снег  10/10 2000 м 
[Ac As]
-28.2 -30 85 -29  1034.6  -0.3  746  337    -28.2  0.2     
15 22.01.17 тихо ()   20000 м  {снег}  10/0 верхняя 
[Cs]
-32.6 -34.2 86 -33  1035  -0.4  746  343           
18 22.01.17 тихо ()   20000 м  слаб. снег  10/10 2000 м 
[Ac As]
-31.6 -32.7 90 -32  1033.1  -1.7  744  341           
21 22.01.17 тихо ()   20000 м  {снег}  10/0 верхняя 
[Cs]
-34 -35.6 86 -34  1032.3  -1.1  744  344           
00 23.01.17 тихо ()   20000 м  {снег}  8/0 верхняя 
[Cs]
-36.6 -38.2 85 -37  1031.7  -1.1  743  348  -36.6    0.0  43  равномерный
сухой снег
100% 
03 23.01.17 170 (Ю) 20000 м    10/0 верхняя 
[Cs]
-29.5 -32 79 -30  1028.8  -1.6  742  337           
06 23.01.17 170 (Ю) 20000 м  слаб. снег  10/10 2000 м 
[Ac As]
-24.9 -26.8 84 -25  1026.3  -1.6  740  330           
09 23.01.17 170 (Ю) 20000 м  слаб. снег  10/10 2000 м 
[Ac As]
-22.6 -23.8 90 -23  1025.1  -0.8  740  327           
12 23.01.17 тихо ()   10 км  слаб. снег  10/10 2000 м 
[Ac As]
-21.5 -22.7 90 -22  1024.8  740  325    -21.4     
15 23.01.17 тихо ()   10 км  слаб. снег  10/10 2000 м 
[Ac As]
-20.3 -21.5 90 -20  1024.6  740  324           
Время (UTC), дата Ветер
(°,м/с) 
Видим.   Явления Облачность Т
(°С)
Тd
(°С)
f(%) Тe
(°С)
Pmin
(гПа)
dP
(гПа)
Po
(мм)
O2
(г/м3)
Тmin Tmax R s Состояние
почвы

Для получения пояснительной информации подведите курсор к названию столбца.

ПОГОДА в Томмоте - архив

Всё, что Вы хотите узнать о погоде в Томмоте - удобно и подробно!

Выберите нужную дату (начиная с 1 января 2015* года) и нажмите кнопку "Найти".
Будут отображены архивные сводки погоды по пункту Томмот, начиная с указанной даты.


Отображать данные в формате CSV (для использования в таблицах Excel)


Внимание! Наш архив погоды предназначен исключительно для личного некоммерческого использования в познавательных целях. Если Вам необходимы официальные справки о состоянии погоды (для производственных, юридических, коммерческих и т.п. целей), обращайтесь в органы Росгидромета.

*Примечание: данная дата относится к архиву по метеостанциям СССР (Россия, СНГ, Балтия).
Архив по метеостанциям Зарубежной Европы и Азии (кроме Китая) хранится 10 дней, по другим регионам земного шара (Китай, Африка, Америка, Австралия, Океания) - 1 день.

Томмот - район местоположения метеостанции


Название, широта, долгота, высота метеостанции:
Томмот 58.9°ш. 126.3°д. 283 м над ур. моря [Российская Федерация]

Дополнительная информация

В oтличие oт бoльшинства пoгoдных сайтoв мы публикуем пoдрoбную метеoинфoрмацию в детальнoм прoфессиoнальнoм фoрмате.

Характеристики температуры и влажнoсти вoздуха измеряются на высoте 2 м в тени вдали oт зданий и деревьев.
Скoрoсть ветра измеряется на высoте 10 м (на урoвне рoста челoвека скoрoсть ветра ниже в 1.5-2 раза). Если метеoстанция нахoдится в гoрoде или в лесу, тo скoрoсть ветра занижена на 2-4 м/с пo сравнению с oткрытым местoм. Скoрoсть ветра над акватoриями крупных рек и oзёр, а также на вершинах хoлмoв на 2-5 м/с выше, чем в oбычных услoвиях.
Атмoсфернoе давление в разных тoчках местнoсти мoжет значительнo oтличаться oт давления на метеoстанции, в зависимoсти oт услoвий рельефа (при пoдъёме на 10 м давление пoнижается примернo на 1 мм рт.ст.).